DAL2208 KLAX-KMSP

Flight info

Callsign DAL2208
Flight time 3h 1m
Altitude 35000
Route ORCKA5 LAS BAWER LARVE EKR BFF SSWAN TORGY3
Aircraft A321/M-SDE3FGHIRWY/LB1

Departure

Time 2026-04-21 10:50
Airport Los Angeles International Airport (KLAX)

Arrival

Time 2026-04-21 13:52
Airport Minneapolis–Saint Paul International Airport / Wold–Chamberlain Field (KMSP)
Time Latitude Longitude Altitude Speed Heading
2026-04-21 10:30 33.94654 -118.40483 93 ft 0 kts 96°
2026-04-21 10:43 33.94655 -118.40492 93 ft 3 kts 94°
2026-04-21 10:43 33.94654 -118.40516 93 ft 3 kts 77°
2026-04-21 10:43 33.94648 -118.40537 92 ft 3 kts 44°
2026-04-21 10:44 33.94636 -118.40546 93 ft 2 kts 356°
2026-04-21 10:44 33.94633 -118.40546 92 ft 0 kts 353°
2026-04-21 10:46 33.94645 -118.40548 92 ft 5 kts 353°
2026-04-21 10:46 33.94703 -118.40557 95 ft 10 kts 352°
2026-04-21 10:46 33.94745 -118.40574 93 ft 10 kts 338°
2026-04-21 10:46 33.94784 -118.40540 93 ft 8 kts 75°
2026-04-21 10:47 33.94792 -118.40472 94 ft 9 kts 82°
2026-04-21 10:47 33.94801 -118.40390 94 ft 11 kts 82°
2026-04-21 10:47 33.94823 -118.40302 93 ft 11 kts 42°
2026-04-21 10:47 33.94895 -118.40261 97 ft 11 kts 47°
2026-04-21 10:48 33.94919 -118.40179 94 ft 10 kts 37°
2026-04-21 10:48 33.94984 -118.40175 99 ft 8 kts 353°
2026-04-21 10:48 33.95042 -118.40184 99 ft 9 kts 353°
2026-04-21 10:48 33.95117 -118.40196 96 ft 13 kts 352°
2026-04-21 10:49 33.95203 -118.40236 95 ft 13 kts 288°
2026-04-21 10:49 33.95204 -118.40264 94 ft 3 kts 264°
2026-04-21 10:49 33.95190 -118.40390 95 ft 41 kts 263°
2026-04-21 10:49 33.95128 -118.41015 93 ft 106 kts 263°
2026-04-21 10:50 33.95014 -118.42119 96 ft 156 kts 263°
2026-04-21 10:50 33.94871 -118.43515 453 ft 167 kts 263°
2026-04-21 10:50 33.94719 -118.44892 1125 ft 165 kts 262°
2026-04-21 10:50 33.94563 -118.46252 1781 ft 163 kts 261°
2026-04-21 10:51 33.94401 -118.47602 2349 ft 165 kts 261°
2026-04-21 10:51 33.93960 -118.48928 2502 ft 184 kts 230°
2026-04-21 10:51 33.92842 -118.49796 2633 ft 204 kts 192°
2026-04-21 10:51 33.91400 -118.49572 2781 ft 224 kts 151°
2026-04-21 10:52 33.90336 -118.48120 2928 ft 249 kts 110°
2026-04-21 10:52 33.90263 -118.46014 3414 ft 261 kts 72°
2026-04-21 10:52 33.91249 -118.44159 4048 ft 269 kts 46°
2026-04-21 10:52 33.92531 -118.42486 4740 ft 275 kts 50°
2026-04-21 10:53 33.93755 -118.40687 5384 ft 281 kts 52°
2026-04-21 10:53 33.94978 -118.38810 6034 ft 287 kts 53°
2026-04-21 10:53 33.96222 -118.36896 6646 ft 294 kts 52°
2026-04-21 10:53 33.97501 -118.34949 7279 ft 298 kts 52°
2026-04-21 10:54 33.98807 -118.32983 7927 ft 302 kts 52°
2026-04-21 10:54 34.00141 -118.30999 8552 ft 307 kts 52°
2026-04-21 10:54 34.01474 -118.28962 9186 ft 311 kts 56°
2026-04-21 10:54 34.02737 -118.26829 9814 ft 315 kts 58°
2026-04-21 10:55 34.03978 -118.24620 10307 ft 325 kts 59°
2026-04-21 10:55 34.05269 -118.22277 10430 ft 346 kts 59°
2026-04-21 10:55 34.06642 -118.19785 10553 ft 367 kts 59°
2026-04-21 10:55 34.08097 -118.17162 10728 ft 384 kts 59°
2026-04-21 10:56 34.09607 -118.14466 11176 ft 391 kts 58°
2026-04-21 10:56 34.11151 -118.11730 11720 ft 396 kts 58°
2026-04-21 10:56 34.12715 -118.08966 12280 ft 400 kts 58°
2026-04-21 10:56 34.14293 -118.06176 12832 ft 404 kts 58°
2026-04-21 10:57 34.15886 -118.03355 13427 ft 408 kts 58°
2026-04-21 10:57 34.17470 -118.00547 13972 ft 412 kts 58°
2026-04-21 10:57 34.19090 -117.97672 14494 ft 416 kts 58°
2026-04-21 10:57 34.20721 -117.94774 15032 ft 418 kts 58°
2026-04-21 10:58 34.22361 -117.91853 15574 ft 421 kts 58°
2026-04-21 10:58 34.24007 -117.88913 16119 ft 423 kts 58°
2026-04-21 10:58 34.25666 -117.85951 16621 ft 427 kts 58°
2026-04-21 10:58 34.27338 -117.82966 17113 ft 430 kts 58°
2026-04-21 10:59 34.29020 -117.79962 17608 ft 432 kts 58°
2026-04-21 10:59 34.30712 -117.76943 18175 ft 435 kts 58°
2026-04-21 10:59 34.32414 -117.73905 18617 ft 438 kts 58°
2026-04-21 10:59 34.34125 -117.70844 19014 ft 440 kts 58°
2026-04-21 11:00 34.35853 -117.67772 19416 ft 443 kts 57°
2026-04-21 11:00 34.37634 -117.64711 19797 ft 446 kts 56°
2026-04-21 11:00 34.39462 -117.61657 20173 ft 449 kts 55°
2026-04-21 11:00 34.41320 -117.58600 20559 ft 451 kts 55°
2026-04-21 11:01 34.43187 -117.55533 20946 ft 453 kts 55°
2026-04-21 11:01 34.45031 -117.52489 21350 ft 454 kts 55°
2026-04-21 11:01 34.46891 -117.49389 21816 ft 455 kts 56°
2026-04-21 11:02 34.50613 -117.43121 22562 ft 461 kts 56°
2026-04-21 11:02 34.52487 -117.39951 22926 ft 464 kts 56°
2026-04-21 11:02 34.54375 -117.36757 23292 ft 466 kts 56°
2026-04-21 11:02 34.56275 -117.33544 23637 ft 469 kts 56°
2026-04-21 11:03 34.58182 -117.30322 23938 ft 472 kts 56°
2026-04-21 11:03 34.60100 -117.27083 24234 ft 474 kts 56°
2026-04-21 11:03 34.62031 -117.23826 24521 ft 476 kts 55°
2026-04-21 11:03 34.63973 -117.20553 24797 ft 479 kts 55°
2026-04-21 11:04 34.65918 -117.17264 25013 ft 481 kts 55°
2026-04-21 11:04 34.67869 -117.13957 25323 ft 482 kts 55°
2026-04-21 11:04 34.69825 -117.10632 25626 ft 484 kts 56°
2026-04-21 11:04 34.71786 -117.07294 25915 ft 486 kts 55°
2026-04-21 11:05 34.73732 -117.03977 26195 ft 488 kts 55°
2026-04-21 11:05 34.75707 -117.00607 26471 ft 490 kts 55°
2026-04-21 11:05 34.77693 -116.97221 26735 ft 493 kts 55°
2026-04-21 11:05 34.79685 -116.93823 27002 ft 495 kts 55°
2026-04-21 11:06 34.81686 -116.90407 27265 ft 496 kts 55°
2026-04-21 11:06 34.83692 -116.86976 27512 ft 499 kts 55°
2026-04-21 11:06 34.85709 -116.83525 27814 ft 499 kts 55°
2026-04-21 11:06 34.87728 -116.80074 28101 ft 500 kts 55°
2026-04-21 11:07 34.89748 -116.76616 28369 ft 502 kts 55°
2026-04-21 11:07 34.91799 -116.73165 28623 ft 503 kts 51°
2026-04-21 11:07 34.94118 -116.69956 28890 ft 504 kts 47°
2026-04-21 11:07 34.96498 -116.66829 29229 ft 503 kts 47°
2026-04-21 11:08 34.98852 -116.63738 29565 ft 502 kts 47°
2026-04-21 11:08 35.01227 -116.60619 29889 ft 502 kts 47°
2026-04-21 11:08 35.03600 -116.57494 30192 ft 501 kts 47°
2026-04-21 11:08 35.05960 -116.54381 30495 ft 499 kts 47°
2026-04-21 11:09 35.08307 -116.51282 30851 ft 496 kts 47°
2026-04-21 11:09 35.10649 -116.48188 31151 ft 495 kts 47°
2026-04-21 11:09 35.12990 -116.45093 31439 ft 494 kts 47°
2026-04-21 11:09 35.15322 -116.42005 31729 ft 494 kts 47°
2026-04-21 11:10 35.17645 -116.38926 32040 ft 494 kts 48°
2026-04-21 11:10 35.19983 -116.35827 32272 ft 494 kts 48°
2026-04-21 11:10 35.22316 -116.32734 32544 ft 494 kts 48°
2026-04-21 11:10 35.24646 -116.29635 32810 ft 494 kts 48°
2026-04-21 11:11 35.26971 -116.26536 33057 ft 494 kts 48°
2026-04-21 11:11 35.29293 -116.23442 33317 ft 494 kts 48°
2026-04-21 11:11 35.31616 -116.20347 33584 ft 494 kts 48°
2026-04-21 11:11 35.33938 -116.17249 33842 ft 493 kts 48°
2026-04-21 11:12 35.36228 -116.14187 34084 ft 493 kts 48°
2026-04-21 11:12 35.38573 -116.11049 34335 ft 492 kts 48°
2026-04-21 11:12 35.40882 -116.07958 34586 ft 492 kts 48°
2026-04-21 11:12 35.43162 -116.04905 34828 ft 491 kts 48°
2026-04-21 11:13 35.45463 -116.01819 34942 ft 490 kts 48°
2026-04-21 11:13 35.47763 -115.98734 34977 ft 489 kts 48°
2026-04-21 11:13 35.52345 -115.92585 34971 ft 486 kts 48°
2026-04-21 11:14 35.56895 -115.86467 34980 ft 484 kts 49°
2026-04-21 11:14 35.61429 -115.80353 34981 ft 484 kts 49°
2026-04-21 11:15 35.65951 -115.74221 34992 ft 484 kts 49°
2026-04-21 11:15 35.70434 -115.68039 34990 ft 484 kts 49°
2026-04-21 11:16 35.74910 -115.61854 34986 ft 483 kts 49°
2026-04-21 11:16 35.79378 -115.55683 34997 ft 483 kts 49°
2026-04-21 11:17 35.83848 -115.49516 35004 ft 482 kts 49°
2026-04-21 11:17 35.88311 -115.43345 34994 ft 482 kts 50°
2026-04-21 11:18 35.92742 -115.37203 34983 ft 482 kts 50°
2026-04-21 11:18 35.97193 -115.31014 34985 ft 482 kts 50°
2026-04-21 11:19 36.01642 -115.24814 34974 ft 482 kts 50°
2026-04-21 11:19 36.06086 -115.18619 34977 ft 482 kts 50°
2026-04-21 11:20 36.10180 -115.12071 34977 ft 480 kts 57°
2026-04-21 11:20 36.13990 -115.05285 34918 ft 480 kts 57°
2026-04-21 11:21 36.17805 -114.98493 34919 ft 480 kts 57°
2026-04-21 11:21 36.21604 -114.91709 34925 ft 480 kts 57°
2026-04-21 11:22 36.25400 -114.84912 34909 ft 479 kts 57°
2026-04-21 11:22 36.29190 -114.78117 34893 ft 479 kts 57°
2026-04-21 11:23 36.32974 -114.71314 34869 ft 479 kts 57°
2026-04-21 11:23 36.36752 -114.64499 34851 ft 479 kts 57°
2026-04-21 11:24 36.40503 -114.57727 34845 ft 479 kts 57°
2026-04-21 11:24 36.44278 -114.50910 34844 ft 479 kts 57°
2026-04-21 11:25 36.48058 -114.44075 34844 ft 479 kts 57°
2026-04-21 11:25 36.51822 -114.37247 34849 ft 479 kts 58°
2026-04-21 11:26 36.55579 -114.30413 34853 ft 478 kts 58°
2026-04-21 11:26 36.59331 -114.23567 34862 ft 479 kts 58°
2026-04-21 11:27 36.63076 -114.16723 34863 ft 479 kts 58°
2026-04-21 11:27 36.66824 -114.09874 34876 ft 478 kts 58°
2026-04-21 11:28 36.70568 -114.03021 34875 ft 478 kts 58°
2026-04-21 11:28 36.74304 -113.96159 34893 ft 478 kts 58°
2026-04-21 11:29 36.78027 -113.89293 34899 ft 478 kts 58°
2026-04-21 11:29 36.81760 -113.82415 34924 ft 478 kts 58°
2026-04-21 11:30 36.84855 -113.76699 34952 ft 478 kts 58°
2026-04-21 11:30 36.88569 -113.69814 34981 ft 477 kts 58°
2026-04-21 11:31 36.92273 -113.62936 35006 ft 477 kts 58°
2026-04-21 11:31 36.95975 -113.56055 35031 ft 477 kts 58°
2026-04-21 11:32 36.99669 -113.49172 35029 ft 476 kts 58°
2026-04-21 11:32 37.03339 -113.42330 34961 ft 476 kts 57°
2026-04-21 11:33 37.07027 -113.35439 35007 ft 476 kts 58°
2026-04-21 11:33 37.10704 -113.28541 35030 ft 476 kts 58°
2026-04-21 11:34 37.14379 -113.21635 35052 ft 476 kts 58°
2026-04-21 11:34 37.18049 -113.14725 35053 ft 476 kts 58°
2026-04-21 11:35 37.21727 -113.07795 35049 ft 476 kts 58°
2026-04-21 11:35 37.25369 -113.00912 35027 ft 477 kts 58°
2026-04-21 11:36 37.29036 -112.93973 35004 ft 477 kts 58°
2026-04-21 11:36 37.32705 -112.87015 34998 ft 478 kts 58°
2026-04-21 11:37 37.36367 -112.80045 35013 ft 478 kts 58°
2026-04-21 11:37 37.40029 -112.73056 34999 ft 478 kts 58°
2026-04-21 11:38 37.43692 -112.66067 35030 ft 478 kts 58°
2026-04-21 11:38 37.47356 -112.59078 35028 ft 478 kts 58°
2026-04-21 11:39 37.51011 -112.52062 35034 ft 479 kts 58°
2026-04-21 11:39 37.54659 -112.45041 35086 ft 478 kts 58°
2026-04-21 11:40 37.58304 -112.38021 35147 ft 478 kts 58°
2026-04-21 11:40 37.61921 -112.31035 35205 ft 478 kts 58°
2026-04-21 11:41 37.65828 -112.24252 35262 ft 479 kts 53°
2026-04-21 11:41 37.69959 -112.17666 35257 ft 479 kts 53°
2026-04-21 11:42 37.74079 -112.11058 35244 ft 479 kts 53°
2026-04-21 11:42 37.78198 -112.04432 35235 ft 478 kts 53°
2026-04-21 11:43 37.82307 -111.97820 35183 ft 478 kts 53°
2026-04-21 11:43 37.86417 -111.91196 35129 ft 478 kts 53°
2026-04-21 11:44 37.90525 -111.84570 35077 ft 478 kts 53°
2026-04-21 11:44 37.94627 -111.77942 35024 ft 478 kts 53°
2026-04-21 11:45 37.98713 -111.71308 35040 ft 477 kts 53°
2026-04-21 11:45 38.02766 -111.64709 35041 ft 477 kts 53°
2026-04-21 11:46 38.06867 -111.58020 35041 ft 477 kts 53°
2026-04-21 11:46 38.10946 -111.51385 35028 ft 477 kts 53°
2026-04-21 11:47 38.15013 -111.44733 35028 ft 476 kts 53°
2026-04-21 11:47 38.19039 -111.38116 35004 ft 476 kts 53°
2026-04-21 11:48 38.23096 -111.31462 35002 ft 476 kts 53°
2026-04-21 11:48 38.27153 -111.24805 34986 ft 476 kts 53°
2026-04-21 11:49 38.31202 -111.18139 34985 ft 476 kts 53°
2026-04-21 11:49 38.35245 -111.11453 34987 ft 476 kts 54°
2026-04-21 11:50 38.39285 -111.04766 35023 ft 476 kts 54°
2026-04-21 11:50 38.43315 -110.98080 35050 ft 475 kts 54°
2026-04-21 11:51 38.47339 -110.91387 35073 ft 474 kts 54°
2026-04-21 11:51 38.51347 -110.84701 35083 ft 474 kts 54°
2026-04-21 11:52 38.55359 -110.78007 35079 ft 474 kts 54°
2026-04-21 11:52 38.59363 -110.71316 35073 ft 473 kts 54°
2026-04-21 11:53 38.63358 -110.64623 35050 ft 473 kts 54°
2026-04-21 11:53 38.67319 -110.57969 34964 ft 473 kts 54°
2026-04-21 11:54 38.71301 -110.51257 34958 ft 473 kts 54°
2026-04-21 11:54 38.75276 -110.44544 34961 ft 473 kts 54°
2026-04-21 11:55 38.79258 -110.37833 34967 ft 472 kts 54°
2026-04-21 11:55 38.83222 -110.31132 34970 ft 472 kts 54°
2026-04-21 11:56 38.87180 -110.24416 34972 ft 471 kts 54°
2026-04-21 11:56 38.91127 -110.17707 34967 ft 471 kts 54°
2026-04-21 11:57 38.95067 -110.10989 34973 ft 471 kts 54°
2026-04-21 11:57 38.99005 -110.04263 34978 ft 470 kts 54°
2026-04-21 11:58 39.02930 -109.97542 34980 ft 470 kts 54°
2026-04-21 11:58 39.06766 -109.90801 34967 ft 469 kts 56°
2026-04-21 11:59 39.10386 -109.83818 34960 ft 469 kts 58°
2026-04-21 11:59 39.13939 -109.76766 34953 ft 469 kts 58°
2026-04-21 12:00 39.17532 -109.69749 34958 ft 469 kts 57°
2026-04-21 12:00 39.21158 -109.62761 34966 ft 469 kts 57°
2026-04-21 12:01 39.24783 -109.55770 34962 ft 468 kts 57°
2026-04-21 12:01 39.28389 -109.48754 34962 ft 468 kts 58°
2026-04-21 12:02 39.33767 -109.38275 34964 ft 468 kts 57°
2026-04-21 12:03 39.37359 -109.31265 34967 ft 468 kts 58°
2026-04-21 12:03 39.40942 -109.24241 34965 ft 468 kts 58°
2026-04-21 12:04 39.44521 -109.17206 34963 ft 468 kts 58°
2026-04-21 12:04 39.48097 -109.10165 34964 ft 468 kts 58°
2026-04-21 12:05 39.51663 -109.03131 34975 ft 467 kts 58°
2026-04-21 12:05 39.55230 -108.96098 34982 ft 466 kts 57°
2026-04-21 12:06 39.58784 -108.89068 34984 ft 466 kts 58°
2026-04-21 12:06 39.62322 -108.82029 34990 ft 466 kts 58°
2026-04-21 12:07 39.65856 -108.74993 34989 ft 465 kts 58°
2026-04-21 12:07 39.69383 -108.67969 35004 ft 464 kts 58°
2026-04-21 12:08 39.72900 -108.60948 35004 ft 463 kts 58°
2026-04-21 12:08 39.76403 -108.53929 35022 ft 463 kts 58°
2026-04-21 12:09 39.79902 -108.46906 35020 ft 462 kts 58°
2026-04-21 12:09 39.83371 -108.39931 35038 ft 461 kts 57°
2026-04-21 12:10 39.86851 -108.32915 35036 ft 460 kts 58°
2026-04-21 12:10 39.90322 -108.25900 35064 ft 460 kts 58°
2026-04-21 12:11 39.93794 -108.18877 35103 ft 461 kts 58°
2026-04-21 12:11 39.97264 -108.11840 35154 ft 461 kts 58°
2026-04-21 12:12 40.00721 -108.04800 35196 ft 461 kts 58°
2026-04-21 12:12 40.04175 -107.97749 35222 ft 461 kts 58°
2026-04-21 12:13 40.07582 -107.90722 35223 ft 461 kts 59°
2026-04-21 12:13 40.09229 -107.87126 35059 ft 461 kts 60°
2026-04-21 12:13 40.10826 -107.83499 35060 ft 461 kts 61°
2026-04-21 12:14 40.13965 -107.76201 35055 ft 460 kts 61°
2026-04-21 12:14 40.17119 -107.68919 35073 ft 460 kts 60°
2026-04-21 12:15 40.19793 -107.62834 35093 ft 460 kts 60°
2026-04-21 12:15 40.22958 -107.55612 35122 ft 461 kts 60°
2026-04-21 12:16 40.26141 -107.48322 35137 ft 461 kts 60°
2026-04-21 12:16 40.29318 -107.41026 35148 ft 461 kts 60°
2026-04-21 12:17 40.32487 -107.33717 35194 ft 461 kts 60°
2026-04-21 12:17 40.35653 -107.26410 35229 ft 461 kts 60°
2026-04-21 12:18 40.38814 -107.19100 35251 ft 460 kts 60°
2026-04-21 12:18 40.41968 -107.11787 35249 ft 460 kts 60°
2026-04-21 12:19 40.45113 -107.04478 35229 ft 460 kts 60°
2026-04-21 12:19 40.48255 -106.97170 35203 ft 459 kts 60°
2026-04-21 12:20 40.51386 -106.89864 35175 ft 458 kts 60°
2026-04-21 12:20 40.54502 -106.82550 35254 ft 458 kts 60°
2026-04-21 12:21 40.57606 -106.75268 35239 ft 459 kts 60°
2026-04-21 12:21 40.60745 -106.67876 35207 ft 460 kts 60°
2026-04-21 12:22 40.63857 -106.60525 35180 ft 459 kts 60°
2026-04-21 12:22 40.66969 -106.53181 35145 ft 459 kts 60°
2026-04-21 12:23 40.70058 -106.45872 35113 ft 459 kts 60°
2026-04-21 12:23 40.73155 -106.38510 35114 ft 459 kts 60°
2026-04-21 12:24 40.76243 -106.31148 35117 ft 459 kts 60°
2026-04-21 12:24 40.79321 -106.23781 35111 ft 458 kts 60°
2026-04-21 12:25 40.82398 -106.16420 35106 ft 457 kts 60°
2026-04-21 12:25 40.85471 -106.09063 35107 ft 457 kts 60°
2026-04-21 12:26 40.88531 -106.01700 35079 ft 457 kts 60°
2026-04-21 12:26 40.91588 -105.94325 35069 ft 458 kts 59°
2026-04-21 12:27 40.94653 -105.86946 35046 ft 458 kts 59°
2026-04-21 12:27 40.97705 -105.79553 35048 ft 458 kts 59°
2026-04-21 12:28 41.00745 -105.72147 35058 ft 458 kts 59°
2026-04-21 12:28 41.03766 -105.64782 35078 ft 458 kts 60°
2026-04-21 12:29 41.06800 -105.57375 35084 ft 457 kts 60°
2026-04-21 12:29 41.09830 -105.49965 35087 ft 456 kts 59°
2026-04-21 12:30 41.12851 -105.42565 35082 ft 456 kts 60°
2026-04-21 12:30 41.15858 -105.35166 35049 ft 456 kts 60°
2026-04-21 12:31 41.18866 -105.27764 35027 ft 456 kts 60°
2026-04-21 12:31 41.21875 -105.20344 34980 ft 456 kts 60°
2026-04-21 12:32 41.24866 -105.12905 34980 ft 456 kts 60°
2026-04-21 12:32 41.27857 -105.05448 34967 ft 456 kts 60°
2026-04-21 12:33 41.30845 -104.98012 35083 ft 456 kts 60°
2026-04-21 12:33 41.33834 -104.90567 35085 ft 456 kts 59°
2026-04-21 12:34 41.36820 -104.83113 35072 ft 455 kts 60°
2026-04-21 12:34 41.39763 -104.75718 35049 ft 455 kts 60°
2026-04-21 12:35 41.42721 -104.68272 35015 ft 455 kts 60°
2026-04-21 12:35 41.45679 -104.60817 34974 ft 454 kts 60°
2026-04-21 12:36 41.48628 -104.53359 34967 ft 454 kts 60°
2026-04-21 12:36 41.51569 -104.45906 34950 ft 454 kts 60°
2026-04-21 12:37 41.54506 -104.38435 34956 ft 454 kts 60°
2026-04-21 12:37 41.57444 -104.30947 34957 ft 454 kts 60°
2026-04-21 12:38 41.60369 -104.23460 34959 ft 454 kts 60°
2026-04-21 12:38 41.63293 -104.15981 34968 ft 454 kts 60°
2026-04-21 12:39 41.66219 -104.08506 34973 ft 453 kts 60°
2026-04-21 12:39 41.69129 -104.01032 34973 ft 453 kts 60°
2026-04-21 12:40 41.72023 -103.93554 34988 ft 452 kts 60°
2026-04-21 12:40 41.74889 -103.86114 35002 ft 452 kts 60°
2026-04-21 12:41 41.77774 -103.78615 35027 ft 452 kts 60°
2026-04-21 12:41 41.80651 -103.71127 35045 ft 451 kts 59°
2026-04-21 12:42 41.83526 -103.63642 35045 ft 452 kts 60°
2026-04-21 12:42 41.86391 -103.56145 35044 ft 452 kts 60°
2026-04-21 12:43 41.89253 -103.48639 35049 ft 452 kts 60°
2026-04-21 12:43 41.91995 -103.41013 35032 ft 453 kts 62°
2026-04-21 12:44 41.94598 -103.33307 35013 ft 453 kts 62°
2026-04-21 12:44 41.97192 -103.25590 34994 ft 453 kts 62°
2026-04-21 12:45 41.99805 -103.17937 34979 ft 453 kts 62°
2026-04-21 12:45 42.02438 -103.10254 35017 ft 452 kts 61°
2026-04-21 12:46 42.05059 -103.02568 35023 ft 452 kts 62°
2026-04-21 12:46 42.07669 -102.94874 35029 ft 451 kts 62°
2026-04-21 12:47 42.10269 -102.87183 35030 ft 451 kts 62°
2026-04-21 12:47 42.12873 -102.79479 35025 ft 451 kts 62°
2026-04-21 12:48 42.15463 -102.71775 35030 ft 451 kts 61°
2026-04-21 12:48 42.18044 -102.64067 35013 ft 451 kts 61°
2026-04-21 12:49 42.20623 -102.56357 34975 ft 451 kts 62°
2026-04-21 12:49 42.23200 -102.48623 34976 ft 451 kts 62°
2026-04-21 12:50 42.25754 -102.40950 34964 ft 451 kts 62°
2026-04-21 12:50 42.28324 -102.33211 34965 ft 451 kts 61°
2026-04-21 12:51 42.30882 -102.25468 34967 ft 452 kts 61°
2026-04-21 12:51 42.33443 -102.17701 34962 ft 451 kts 61°
2026-04-21 12:52 42.36000 -102.09939 34963 ft 452 kts 61°
2026-04-21 12:52 42.38551 -102.02176 34974 ft 451 kts 61°
2026-04-21 12:53 42.41090 -101.94402 34981 ft 451 kts 61°
2026-04-21 12:53 42.43627 -101.86634 34982 ft 451 kts 61°
2026-04-21 12:54 42.46152 -101.78854 34978 ft 451 kts 61°
2026-04-21 12:54 42.48652 -101.71124 34972 ft 451 kts 61°
2026-04-21 12:55 42.51167 -101.63343 34977 ft 451 kts 61°
2026-04-21 12:55 42.53682 -101.55563 34997 ft 450 kts 61°
2026-04-21 12:56 42.56188 -101.47778 34990 ft 450 kts 61°
2026-04-21 12:56 42.58684 -101.39990 34994 ft 450 kts 61°
2026-04-21 12:57 42.60757 -101.33500 34993 ft 450 kts 61°
2026-04-21 12:57 42.63242 -101.25697 35005 ft 450 kts 61°
2026-04-21 12:58 42.65725 -101.17891 35010 ft 450 kts 61°
2026-04-21 12:58 42.68203 -101.10083 35007 ft 450 kts 61°
2026-04-21 12:59 42.70668 -101.02259 35009 ft 450 kts 61°
2026-04-21 12:59 42.73132 -100.94431 34999 ft 450 kts 61°
2026-04-21 13:00 42.75600 -100.86593 34990 ft 451 kts 61°
2026-04-21 13:00 42.78066 -100.78737 34997 ft 451 kts 61°
2026-04-21 13:01 42.80519 -100.70869 35003 ft 451 kts 61°
2026-04-21 13:01 42.82970 -100.62997 35008 ft 451 kts 61°
2026-04-21 13:02 42.85416 -100.55119 35023 ft 452 kts 61°
2026-04-21 13:02 42.89083 -100.43267 35017 ft 452 kts 61°
2026-04-21 13:03 42.91519 -100.35362 34961 ft 452 kts 61°
2026-04-21 13:03 42.93948 -100.27439 34965 ft 452 kts 61°
2026-04-21 13:04 42.96354 -100.19569 34979 ft 452 kts 61°
2026-04-21 13:04 42.98791 -100.11583 34972 ft 453 kts 60°
2026-04-21 13:05 43.01203 -100.03682 34965 ft 453 kts 60°
2026-04-21 13:05 43.03625 -99.95715 34967 ft 454 kts 61°
2026-04-21 13:06 43.06038 -99.87716 34970 ft 455 kts 61°
2026-04-21 13:06 43.08445 -99.79715 34992 ft 455 kts 60°
2026-04-21 13:07 43.10851 -99.71698 34986 ft 456 kts 61°
2026-04-21 13:07 43.13268 -99.63681 34978 ft 456 kts 60°
2026-04-21 13:08 43.15673 -99.55651 34971 ft 456 kts 61°
2026-04-21 13:08 43.18061 -99.47612 34959 ft 456 kts 61°
2026-04-21 13:09 43.20442 -99.39563 34962 ft 455 kts 61°
2026-04-21 13:09 43.22823 -99.31533 34948 ft 455 kts 60°
2026-04-21 13:10 43.25202 -99.23484 34946 ft 455 kts 61°
2026-04-21 13:10 43.27568 -99.15431 34952 ft 455 kts 60°
2026-04-21 13:11 43.29931 -99.07362 34962 ft 456 kts 60°
2026-04-21 13:11 43.32301 -98.99276 34955 ft 456 kts 60°
2026-04-21 13:12 43.34661 -98.91164 34947 ft 457 kts 61°
2026-04-21 13:12 43.37011 -98.83041 34947 ft 457 kts 61°
2026-04-21 13:13 43.39365 -98.74921 34942 ft 457 kts 61°
2026-04-21 13:13 43.41713 -98.66790 34951 ft 457 kts 61°
2026-04-21 13:14 43.44054 -98.58654 34941 ft 457 kts 61°
2026-04-21 13:14 43.46387 -98.50511 34936 ft 457 kts 61°
2026-04-21 13:15 43.48719 -98.42359 34931 ft 457 kts 61°
2026-04-21 13:15 43.51029 -98.34243 34943 ft 458 kts 61°
2026-04-21 13:16 43.53343 -98.26067 34960 ft 458 kts 61°
2026-04-21 13:16 43.55657 -98.17877 34953 ft 458 kts 61°
2026-04-21 13:17 43.57976 -98.09679 34942 ft 459 kts 61°
2026-04-21 13:17 43.60283 -98.01471 34963 ft 459 kts 61°
2026-04-21 13:18 43.62582 -97.93253 34985 ft 459 kts 61°
2026-04-21 13:18 43.64878 -97.85025 34967 ft 459 kts 62°
2026-04-21 13:19 43.67176 -97.76776 34953 ft 460 kts 62°
2026-04-21 13:19 43.69465 -97.68507 34942 ft 460 kts 62°
2026-04-21 13:20 43.71751 -97.60242 34939 ft 460 kts 62°
2026-04-21 13:20 43.74040 -97.51957 34935 ft 461 kts 62°
2026-04-21 13:21 43.76324 -97.43651 34934 ft 462 kts 62°
2026-04-21 13:21 43.78601 -97.35335 34935 ft 462 kts 62°
2026-04-21 13:22 43.80866 -97.27003 34942 ft 463 kts 62°
2026-04-21 13:22 43.83113 -97.18708 34944 ft 463 kts 62°
2026-04-21 13:23 43.85389 -97.10303 34948 ft 463 kts 62°
2026-04-21 13:23 43.87646 -97.01946 34947 ft 463 kts 62°
2026-04-21 13:24 43.89894 -96.93583 34943 ft 463 kts 62°
2026-04-21 13:24 43.92142 -96.85220 34937 ft 463 kts 62°
2026-04-21 13:25 43.94369 -96.76897 34944 ft 463 kts 63°
2026-04-21 13:25 43.96602 -96.68499 34930 ft 464 kts 63°
2026-04-21 13:26 43.98826 -96.60081 34929 ft 465 kts 63°
2026-04-21 13:26 44.01058 -96.51651 34943 ft 465 kts 63°
2026-04-21 13:27 44.03276 -96.43218 34971 ft 465 kts 63°
2026-04-21 13:27 44.05496 -96.34752 34972 ft 466 kts 63°
2026-04-21 13:28 44.07713 -96.26282 34960 ft 466 kts 63°
2026-04-21 13:28 44.09927 -96.17794 34946 ft 467 kts 64°
2026-04-21 13:29 44.12140 -96.09279 34938 ft 467 kts 64°
2026-04-21 13:29 44.14335 -96.00760 34942 ft 468 kts 64°
2026-04-21 13:30 44.16855 -95.92477 34942 ft 459 kts 54°
2026-04-21 13:30 44.19947 -95.84683 34940 ft 460 kts 54°
2026-04-21 13:31 44.23029 -95.76856 34937 ft 461 kts 54°
2026-04-21 13:31 44.26098 -95.69017 34952 ft 461 kts 55°
2026-04-21 13:32 44.29168 -95.61166 34969 ft 461 kts 55°
2026-04-21 13:32 44.32222 -95.53357 34935 ft 460 kts 55°
2026-04-21 13:33 44.35292 -95.45492 34905 ft 462 kts 55°
2026-04-21 13:33 44.38358 -95.37594 34899 ft 463 kts 55°
2026-04-21 13:34 44.41427 -95.29646 34914 ft 464 kts 56°
2026-04-21 13:34 44.44489 -95.21687 34912 ft 465 kts 56°
2026-04-21 13:35 44.46976 -95.13252 34916 ft 473 kts 66°
2026-04-21 13:35 44.49019 -95.04478 34089 ft 476 kts 67°
2026-04-21 13:36 44.50046 -95.00039 33278 ft 478 kts 67°
2026-04-21 13:36 44.51058 -94.95659 32587 ft 476 kts 67°
2026-04-21 13:36 44.52072 -94.91261 31838 ft 473 kts 67°
2026-04-21 13:36 44.53075 -94.86903 31211 ft 467 kts 67°
2026-04-21 13:37 44.54070 -94.82575 30568 ft 462 kts 66°
2026-04-21 13:37 44.55051 -94.78308 29907 ft 457 kts 66°
2026-04-21 13:37 44.55694 -94.75507 29417 ft 454 kts 66°
2026-04-21 13:37 44.56658 -94.71313 28691 ft 449 kts 67°
2026-04-21 13:38 44.57613 -94.67159 27979 ft 445 kts 67°
2026-04-21 13:38 44.58558 -94.63040 27282 ft 441 kts 67°
2026-04-21 13:38 44.59492 -94.58967 26620 ft 436 kts 67°
2026-04-21 13:38 44.60414 -94.54926 25983 ft 432 kts 68°
2026-04-21 13:39 44.61323 -94.50926 25345 ft 428 kts 68°
2026-04-21 13:39 44.62223 -94.46961 24701 ft 424 kts 68°
2026-04-21 13:39 44.63112 -94.43035 24079 ft 420 kts 68°
2026-04-21 13:39 44.63991 -94.39135 23462 ft 417 kts 68°
2026-04-21 13:40 44.64859 -94.35277 22738 ft 413 kts 68°
2026-04-21 13:40 44.65721 -94.31438 22039 ft 409 kts 68°
2026-04-21 13:40 44.66850 -94.26413 21156 ft 405 kts 69°
2026-04-21 13:40 44.67409 -94.23924 20727 ft 402 kts 69°
2026-04-21 13:41 44.68250 -94.20188 20097 ft 399 kts 69°
2026-04-21 13:41 44.69086 -94.16485 19493 ft 396 kts 69°
2026-04-21 13:41 44.69915 -94.12814 18902 ft 393 kts 69°
2026-04-21 13:41 44.70737 -94.09165 18330 ft 390 kts 69°
2026-04-21 13:42 44.71552 -94.05544 17696 ft 387 kts 69°
2026-04-21 13:42 44.72360 -94.01939 17078 ft 384 kts 69°
2026-04-21 13:42 44.73156 -93.98376 16482 ft 380 kts 69°
2026-04-21 13:42 44.73945 -93.94839 15917 ft 376 kts 69°
2026-04-21 13:43 44.74736 -93.91413 15762 ft 358 kts 64°
2026-04-21 13:43 44.75889 -93.88446 15612 ft 337 kts 49°
2026-04-21 13:43 44.77435 -93.86079 15258 ft 323 kts 36°
2026-04-21 13:43 44.79112 -93.83988 14801 ft 320 kts 36°
2026-04-21 13:44 44.80767 -93.81912 14284 ft 318 kts 37°
2026-04-21 13:44 44.82410 -93.79843 13757 ft 316 kts 37°
2026-04-21 13:44 44.84040 -93.77786 13186 ft 314 kts 37°
2026-04-21 13:44 44.85655 -93.75743 12642 ft 310 kts 37°
2026-04-21 13:45 44.87230 -93.73743 12395 ft 297 kts 37°
2026-04-21 13:45 44.88729 -93.71833 12126 ft 285 kts 37°
2026-04-21 13:45 44.90192 -93.69974 11683 ft 281 kts 37°
2026-04-21 13:45 44.91649 -93.68057 10897 ft 292 kts 45°
2026-04-21 13:46 44.92665 -93.65585 10359 ft 300 kts 68°
2026-04-21 13:46 44.93254 -93.62766 9835 ft 299 kts 70°
2026-04-21 13:46 44.93817 -93.59955 9298 ft 296 kts 70°
2026-04-21 13:46 44.94386 -93.57103 8565 ft 301 kts 71°
2026-04-21 13:47 44.94953 -93.54277 7828 ft 305 kts 71°
2026-04-21 13:47 44.95517 -93.51461 7587 ft 282 kts 71°
2026-04-21 13:47 44.96034 -93.48882 7112 ft 272 kts 72°
2026-04-21 13:47 44.96539 -93.46349 6639 ft 255 kts 72°
2026-04-21 13:48 44.96930 -93.44000 6162 ft 238 kts 84°
2026-04-21 13:48 44.96660 -93.41756 5429 ft 230 kts 114°
2026-04-21 13:48 44.95892 -93.39832 4691 ft 222 kts 122°
2026-04-21 13:48 44.95086 -93.38017 4085 ft 212 kts 121°
2026-04-21 13:49 44.94324 -93.36268 3393 ft 207 kts 120°
2026-04-21 13:49 44.93587 -93.34560 2827 ft 199 kts 119°
2026-04-21 13:49 44.92888 -93.32941 2449 ft 184 kts 119°
2026-04-21 13:49 44.92256 -93.31475 2239 ft 166 kts 119°
2026-04-21 13:50 44.91675 -93.30127 2010 ft 157 kts 120°
2026-04-21 13:50 44.91113 -93.28824 1800 ft 154 kts 120°
2026-04-21 13:50 44.90563 -93.27549 1582 ft 151 kts 121°
2026-04-21 13:50 44.90022 -93.26295 1373 ft 149 kts 121°
2026-04-21 13:51 44.89485 -93.25050 1162 ft 148 kts 121°
2026-04-21 13:51 44.88955 -93.23817 953 ft 147 kts 121°
2026-04-21 13:51 44.88438 -93.22623 825 ft 136 kts 123°
2026-04-21 13:51 44.88038 -93.21704 824 ft 82 kts 121°
2026-04-21 13:52 44.87858 -93.21287 821 ft 28 kts 119°
2026-04-21 13:52 44.87854 -93.21127 826 ft 12 kts 81°
2026-04-21 13:52 44.87905 -93.21113 823 ft 8 kts 327°
2026-04-21 13:52 44.87937 -93.21175 822 ft 7 kts 302°
2026-04-21 13:53 44.87963 -93.21234 825 ft 7 kts 301°
2026-04-21 13:53 44.87985 -93.21287 824 ft 6 kts 301°
2026-04-21 13:53 44.88008 -93.21339 822 ft 8 kts 301°
2026-04-21 13:53 44.88052 -93.21439 824 ft 13 kts 311°
2026-04-21 13:54 44.88127 -93.21478 825 ft 11 kts 341°
2026-04-21 13:54 44.88181 -93.21540 825 ft 9 kts 299°
2026-04-21 13:54 44.88212 -93.21614 825 ft 7 kts 301°
2026-04-21 13:54 44.88236 -93.21670 825 ft 6 kts 301°
2026-04-21 13:55 44.88257 -93.21718 823 ft 5 kts 301°
2026-04-21 13:55 44.88278 -93.21728 825 ft 2 kts 20°
2026-04-21 13:55 44.88290 -93.21705 825 ft 7 kts 49°
2026-04-21 13:55 44.88327 -93.21640 822 ft 8 kts 51°
2026-04-21 13:56 44.88335 -93.21626 825 ft 0 kts 51°